Weather in Louisville

United States     38°15′16″N   85°46′05″W
В апреле 2022 года жителям России запретили посещать сайт meteo.paraplan.net по решению Генеральной прокуратуры. Аудитория сайта уменьшилась в 10 раз. Владельцы сайта не видят смысла в поддержке погодного сервера в таких условиях. Сайт будет закрыт в октябре.
temp.,
°C
wind,
m/s
gust,
m/s
humid.,
%
clouds,
%
prec.,
mm/h
press.,
hPa
HPBL,
m
4 october, tue
tue423:00+13ne27440 0.0 1024177
02:00+11ne23480 0.0 1023101
05:00+10nne23570 0.0 102377
08:00+8nne23620 0.0 102482
11:00+15ne23420 0.0 1024484
14:00+21nne23240 0.0 10221097
17:00+23nne23200 0.0 10191497
20:00+17nne25310 0.0 102095
5 october, wed
wed523:00+14nne22370 0.0 102154
02:00+12nne12450 0.0 102144
05:00+11nne11495 0.0 102116
08:00+10ne115254 0.0 102128
11:00+17ene113690 0.0 1021347
14:00+23n112677 0.0 1020870
17:00+24nnw112760 0.0 10181070
20:00+19s113689 0.0 101811
6 october, thu
thu623:00+17w00421 0.0 101911
02:00+15ssw114599 0.0 101812
05:00+14s2351100 0.0 101868
08:00+13ssw125623 0.0 101943
11:00+18ssw374394 0.0 1018385
14:00+25sw472450 0.0 10161513
17:00+26w47280 0.0 10151855
20:00+20wnw24481 0.0 101688
7 october, fri
fri723:00+19w26545 0.0 1017113
02:00+18wnw245814 0.0 1017126
05:00+14n410695 0.0 1019314
08:00+12n51182100 0.0 1022485
11:00+12n595571 0.0 1024764
14:00+16n563435 0.0 10241386
17:00+16n56305 0.0 10241604
20:00+12n38390 0.0 1025400
8 october, sat
sat823:00+10nne26450 0.0 1027151
02:00+7nne37560 0.0 1028195
05:00+6nne25670 0.0 1028159
08:00+5nne23720 0.0 1029117
11:00+11nne22460 0.0 1029538
14:00+16nw12300 0.0 10271384
17:00+18wnw23240 0.0 10241582
20:00+13wnw25380 0.0 1024124